Year,Month,Day,Hour,Minute,Value (Times are PST for barometer in hPa)
2022,05,24,00,00,946.09
2022,05,24,00,01,946.09
2022,05,24,00,02,946.09
2022,05,24,00,03,946.09
2022,05,24,00,04,946.09
2022,05,24,00,05,946.09
2022,05,24,00,06,946.09
2022,05,24,00,07,946.09
2022,05,24,00,08,946.09
2022,05,24,00,09,946.09
2022,05,24,00,10,946.09
2022,05,24,00,11,946.09
2022,05,24,00,12,946.09
2022,05,24,00,13,946.09
2022,05,24,00,14,946.09
2022,05,24,00,15,946.09
2022,05,24,00,16,946.09
2022,05,24,00,17,946.09
2022,05,24,00,18,946.09
2022,05,24,00,19,946.09
2022,05,24,00,20,946.09
2022,05,24,00,21,946.09
2022,05,24,00,22,946.09
2022,05,24,00,23,946.09
2022,05,24,00,24,946.09
2022,05,24,00,25,946.09
2022,05,24,00,26,946.09
2022,05,24,00,27,946.09
2022,05,24,00,28,946.09
2022,05,24,00,29,946.09
2022,05,24,00,30,946.09
2022,05,24,00,31,946.09
2022,05,24,00,32,946.09
2022,05,24,00,33,946.09
2022,05,24,00,34,946.09
2022,05,24,00,35,947.75
2022,05,24,00,36,947.92
2022,05,24,00,37,947.92
2022,05,24,00,38,947.92
2022,05,24,00,39,947.92
2022,05,24,00,40,939.11
2022,05,24,00,41,938.13
2022,05,24,00,42,938.13
2022,05,24,00,43,957.71
2022,05,24,00,44,960.01
2022,05,24,00,45,960.01
2022,05,24,00,46,960.01
2022,05,24,00,47,960.01
2022,05,24,00,48,960.01
2022,05,24,00,49,960.01
2022,05,24,00,50,954.56
2022,05,24,00,51,953.95
2022,05,24,00,52,953.95
2022,05,24,00,53,953.95
2022,05,24,00,54,953.95
2022,05,24,00,55,953.95
2022,05,24,00,56,953.95
2022,05,24,00,57,953.95
2022,05,24,00,58,953.95
2022,05,24,00,59,953.95
2022,05,24,01,00,953.95
2022,05,24,01,01,953.95
2022,05,24,01,02,953.95
2022,05,24,01,03,953.95
2022,05,24,01,04,953.95
2022,05,24,01,05,953.95
2022,05,24,01,06,953.95
2022,05,24,01,07,953.95
2022,05,24,01,08,953.95
2022,05,24,01,09,953.95
2022,05,24,01,10,953.95
2022,05,24,01,11,953.95
2022,05,24,01,12,953.95
2022,05,24,01,13,962.07
2022,05,24,01,14,963.02
2022,05,24,01,15,963.02
2022,05,24,01,16,963.02
2022,05,24,01,17,963.02
2022,05,24,01,18,963.02
2022,05,24,01,19,963.02
2022,05,24,01,20,963.02
2022,05,24,01,21,963.02
2022,05,24,01,22,961.22
2022,05,24,01,23,961.02
2022,05,24,01,24,961.02
2022,05,24,01,25,961.02
2022,05,24,01,26,961.02
2022,05,24,01,27,961.02
2022,05,24,01,28,961.02
2022,05,24,01,29,961.02
2022,05,24,01,30,961.02
2022,05,24,01,31,961.02
2022,05,24,01,32,961.02
2022,05,24,01,33,961.02
2022,05,24,01,34,961.02
2022,05,24,01,35,961.02
2022,05,24,01,36,961.02
2022,05,24,01,37,961.02
2022,05,24,01,38,961.02
2022,05,24,01,39,961.02
2022,05,24,01,40,961.02
2022,05,24,01,41,961.02
2022,05,24,01,42,961.02
2022,05,24,01,43,961.02
2022,05,24,01,44,961.02
2022,05,24,01,45,961.02
2022,05,24,01,46,968.12
2022,05,24,01,47,968.91
2022,05,24,01,48,968.91
2022,05,24,01,49,968.91
2022,05,24,01,50,968.91
2022,05,24,01,51,968.91
2022,05,24,01,52,968.91
2022,05,24,01,53,968.91
2022,05,24,01,54,968.91
2022,05,24,01,55,968.91
2022,05,24,01,56,970.44
2022,05,24,01,57,970.61
2022,05,24,01,58,970.61
2022,05,24,01,59,970.61
2022,05,24,02,00,970.61
2022,05,24,02,01,970.61
2022,05,24,02,02,970.61
2022,05,24,02,03,970.61
2022,05,24,02,04,970.61
2022,05,24,02,05,970.61
2022,05,24,02,06,970.61
2022,05,24,02,07,970.61
2022,05,24,02,08,970.61
2022,05,24,02,09,970.61
2022,05,24,02,10,970.61
2022,05,24,02,11,970.61
2022,05,24,02,12,970.61
2022,05,24,02,13,974.70
2022,05,24,02,14,975.18
2022,05,24,02,15,975.18
2022,05,24,02,16,975.18
2022,05,24,02,17,975.18
2022,05,24,02,18,975.18
2022,05,24,02,19,975.18
2022,05,24,02,20,975.18
2022,05,24,02,21,975.18
2022,05,24,02,22,975.18
2022,05,24,02,23,982.19
2022,05,24,02,24,982.97
2022,05,24,02,25,982.97
2022,05,24,02,26,982.97
2022,05,24,02,27,982.97
2022,05,24,02,28,982.97
2022,05,24,02,29,982.97
2022,05,24,02,30,982.97
2022,05,24,02,31,982.97
2022,05,24,02,32,982.97
2022,05,24,02,33,982.97
2022,05,24,02,34,982.97
2022,05,24,02,35,982.97
2022,05,24,02,36,982.97
2022,05,24,02,37,982.97
2022,05,24,02,38,982.97
2022,05,24,02,39,982.97
2022,05,24,02,40,982.97
2022,05,24,02,41,982.97
2022,05,24,02,42,983.80
2022,05,24,02,43,983.95
2022,05,24,02,44,973.16
2022,05,24,02,45,971.89
2022,05,24,02,46,972.32
2022,05,24,02,47,972.37
2022,05,24,02,48,972.37
2022,05,24,02,49,972.37
2022,05,24,02,50,972.37
2022,05,24,02,51,972.37
2022,05,24,02,52,972.37
2022,05,24,02,53,972.37
2022,05,24,02,54,972.37
2022,05,24,02,55,972.37
2022,05,24,02,56,972.37
2022,05,24,02,57,972.37
2022,05,24,02,58,972.37
2022,05,24,02,59,972.37
2022,05,24,03,00,972.37
2022,05,24,03,01,972.37
2022,05,24,03,02,972.37
2022,05,24,03,06,972.37
2022,05,24,03,07,972.37
2022,05,24,03,08,972.37
2022,05,24,03,09,972.37
2022,05,24,03,10,972.37
2022,05,24,03,11,972.37
2022,05,24,03,12,972.37
2022,05,24,03,13,972.37
2022,05,24,03,14,972.37
2022,05,24,03,15,972.37
2022,05,24,03,16,972.37
2022,05,24,03,17,972.37
2022,05,24,03,18,972.37
2022,05,24,03,19,972.37
2022,05,24,03,20,972.37
2022,05,24,03,21,972.37
2022,05,24,03,22,972.37
2022,05,24,03,23,972.37
2022,05,24,03,24,972.37
2022,05,24,03,25,972.37
2022,05,24,03,26,972.37
2022,05,24,03,27,972.37
2022,05,24,03,28,972.37
2022,05,24,03,29,972.37
2022,05,24,03,30,972.37
2022,05,24,03,31,972.37
2022,05,24,03,32,972.88
2022,05,24,03,33,982.56
2022,05,24,03,34,982.56
2022,05,24,03,35,982.55
2022,05,24,03,36,982.32
2022,05,24,03,37,982.32
2022,05,24,03,38,982.32
2022,05,24,03,39,982.32
2022,05,24,03,40,982.32
2022,05,24,03,41,982.32
2022,05,24,03,42,982.32
2022,05,24,03,43,982.32
2022,05,24,03,44,982.32
2022,05,24,03,45,982.32
2022,05,24,03,46,982.32
2022,05,24,03,47,982.23
2022,05,24,03,48,980.53
2022,05,24,03,49,980.53
2022,05,24,03,50,980.33
2022,05,24,03,51,976.47
2022,05,24,03,52,976.47
2022,05,24,03,53,976.13
2022,05,24,03,54,969.69
2022,05,24,03,55,969.69
2022,05,24,03,56,969.69
2022,05,24,03,57,970.12
2022,05,24,03,58,978.26
2022,05,24,03,59,978.26
2022,05,24,04,00,978.26
2022,05,24,04,01,978.26
2022,05,24,04,02,978.26
2022,05,24,04,03,978.26
2022,05,24,04,04,978.26
2022,05,24,04,05,978.26
2022,05,24,04,06,978.26
2022,05,24,04,07,978.26
2022,05,24,04,08,978.26
2022,05,24,04,09,978.26
2022,05,24,04,10,978.26
2022,05,24,04,11,978.26
2022,05,24,04,12,978.26
2022,05,24,04,13,978.26
2022,05,24,04,14,978.26
2022,05,24,04,15,978.26
2022,05,24,04,16,978.26
2022,05,24,04,17,978.26
2022,05,24,04,18,978.26
2022,05,24,04,19,978.26
2022,05,24,04,20,978.26
2022,05,24,04,21,979.31
2022,05,24,04,22,999.26
2022,05,24,04,23,999.26
2022,05,24,04,24,999.26
2022,05,24,04,25,999.26
2022,05,24,04,26,999.26
2022,05,24,04,27,999.26
2022,05,24,04,28,999.26
2022,05,24,04,29,999.26
2022,05,24,04,30,999.26
2022,05,24,04,31,999.26
2022,05,24,04,32,999.26
2022,05,24,04,33,999.26
2022,05,24,04,34,999.26
2022,05,24,04,35,999.26
2022,05,24,04,36,999.26
2022,05,24,04,37,999.26
2022,05,24,04,38,999.26
2022,05,24,04,39,999.26
2022,05,24,04,40,999.26
2022,05,24,04,41,999.26
2022,05,24,04,42,999.26
2022,05,24,04,43,999.26
2022,05,24,04,44,999.26
2022,05,24,04,45,999.26
2022,05,24,04,46,999.26
2022,05,24,04,47,999.26
2022,05,24,04,48,999.26
2022,05,24,04,49,999.26
2022,05,24,04,50,999.26
2022,05,24,04,51,999.26
2022,05,24,04,52,999.26
2022,05,24,04,53,999.26
2022,05,24,04,54,999.26
2022,05,24,04,55,999.26
2022,05,24,04,56,999.26
2022,05,24,04,57,999.26
2022,05,24,04,58,999.26
2022,05,24,04,59,999.26
2022,05,24,05,00,999.26
2022,05,24,05,01,994.62
2022,05,24,05,02,994.62
2022,05,24,05,03,994.62
2022,05,24,05,04,994.62
2022,05,24,05,05,994.62
2022,05,24,05,06,994.62
2022,05,24,05,07,994.62
2022,05,24,05,08,994.62
2022,05,24,05,09,994.62
2022,05,24,05,10,994.62
2022,05,24,05,11,994.62
2022,05,24,05,12,994.62
2022,05,24,05,13,994.62
2022,05,24,05,14,994.62
2022,05,24,05,15,994.62
2022,05,24,05,16,994.62
2022,05,24,05,17,994.62
2022,05,24,05,18,994.62
2022,05,24,05,19,994.62
2022,05,24,05,20,994.62
2022,05,24,05,21,994.62
2022,05,24,05,22,994.62
2022,05,24,05,23,994.62
2022,05,24,05,24,994.62
2022,05,24,05,25,994.62
2022,05,24,05,26,994.62
2022,05,24,05,27,994.62
2022,05,24,05,28,995.15
2022,05,24,05,29,1005.15
2022,05,24,05,30,1005.15
2022,05,24,05,31,1005.15
2022,05,24,05,32,1005.15
2022,05,24,05,33,1005.15
2022,05,24,05,34,1005.15
2022,05,24,05,35,1005.15
2022,05,24,05,36,1005.15
2022,05,24,05,37,1008.57
2022,05,24,05,38,1008.57
2022,05,24,05,39,1008.57
2022,05,24,05,40,1008.57
2022,05,24,05,41,1008.57
2022,05,24,05,42,1008.57
2022,05,24,05,43,1008.57
2022,05,24,05,44,1008.57
2022,05,24,05,45,1008.57
2022,05,24,05,46,1008.57
2022,05,24,05,47,1008.57
2022,05,24,05,48,1008.57
2022,05,24,05,49,1008.65
2022,05,24,05,50,1010.19
2022,05,24,05,51,1010.19
2022,05,24,05,52,1010.19
2022,05,24,05,53,1010.19
2022,05,24,05,54,1010.19
2022,05,24,05,55,992.72
2022,05,24,05,56,992.72
2022,05,24,05,57,992.35
2022,05,24,05,58,985.24
2022,05,24,05,59,985.24
2022,05,24,06,00,985.24
2022,05,24,06,01,985.24
2022,05,24,06,02,985.24
2022,05,24,06,03,985.24
2022,05,24,06,04,985.24
2022,05,24,06,05,985.24
2022,05,24,06,06,985.24
2022,05,24,06,07,985.24
2022,05,24,06,08,985.24
2022,05,24,06,09,985.24
2022,05,24,06,10,985.24
2022,05,24,06,11,985.24
2022,05,24,06,12,985.24
2022,05,24,06,13,985.24
2022,05,24,06,14,985.24
2022,05,24,06,15,985.24
2022,05,24,06,16,979.21
2022,05,24,06,17,979.21
2022,05,24,06,18,979.21
2022,05,24,06,19,979.21
2022,05,24,06,20,979.21
2022,05,24,06,21,979.21
2022,05,24,06,22,988.89
2022,05,24,06,23,988.89
2022,05,24,06,24,990.38
2022,05,24,06,25,990.38
2022,05,24,06,26,990.38
2022,05,24,06,27,990.38
2022,05,24,06,28,990.20
2022,05,24,06,29,986.86
2022,05,24,06,30,986.86
2022,05,24,06,31,986.86
2022,05,24,06,32,986.86
2022,05,24,06,33,993.26
2022,05,24,06,34,993.26
2022,05,24,06,35,993.26
2022,05,24,06,36,993.26
2022,05,24,06,37,993.26
2022,05,24,06,38,993.26
2022,05,24,06,39,993.26
2022,05,24,06,40,993.26
2022,05,24,06,41,993.26
2022,05,24,06,42,993.26
2022,05,24,06,43,993.26
2022,05,24,06,44,993.26
2022,05,24,06,45,993.26
2022,05,24,06,46,993.26
2022,05,24,06,47,993.26
2022,05,24,06,48,993.26
2022,05,24,06,49,993.26
2022,05,24,06,50,993.26
2022,05,24,06,51,985.24
2022,05,24,06,52,985.24
2022,05,24,06,53,985.24
2022,05,24,06,54,985.24
2022,05,24,06,55,985.24
2022,05,24,06,56,985.24
2022,05,24,06,57,981.38
2022,05,24,06,58,981.38
2022,05,24,06,59,981.38
2022,05,24,07,00,981.38
2022,05,24,07,01,983.20
2022,05,24,07,02,983.20
2022,05,24,07,03,983.20
2022,05,24,07,04,983.20
2022,05,24,07,05,983.20
2022,05,24,07,06,983.20
2022,05,24,07,07,973.28
2022,05,24,07,08,973.28
2022,05,24,07,09,973.28
2022,05,24,07,10,973.28
2022,05,24,07,11,973.28
2022,05,24,07,12,973.28
2022,05,24,07,13,969.08
2022,05,24,07,14,969.08
2022,05,24,07,15,969.08
2022,05,24,07,16,968.00
2022,05,24,07,17,968.00
2022,05,24,07,18,972.16
2022,05,24,07,19,972.16
2022,05,24,07,20,972.16
2022,05,24,07,21,965.70
2022,05,24,07,22,965.70
2022,05,24,07,23,965.70
2022,05,24,07,24,965.70
2022,05,24,07,25,965.70
2022,05,24,07,26,965.70
2022,05,24,07,27,965.70
2022,05,24,07,28,965.70
2022,05,24,07,29,965.70
2022,05,24,07,30,965.70
2022,05,24,07,31,965.70
2022,05,24,07,32,965.70
2022,05,24,07,33,965.70
2022,05,24,07,34,965.70
2022,05,24,07,35,965.70
2022,05,24,07,36,984.53
2022,05,24,07,37,984.53
2022,05,24,07,38,984.53
2022,05,24,07,39,981.48
2022,05,24,07,40,981.48
2022,05,24,07,41,981.48
2022,05,24,07,42,981.48
2022,05,24,07,43,981.48
2022,05,24,07,44,981.48
2022,05,24,07,45,981.48
2022,05,24,07,46,981.48
2022,05,24,07,47,981.48
2022,05,24,07,48,981.48
2022,05,24,07,49,981.48
2022,05,24,07,50,981.48
2022,05,24,07,51,981.48
2022,05,24,07,52,981.48
2022,05,24,07,53,981.48
2022,05,24,07,54,981.48
2022,05,24,07,55,981.48
2022,05,24,07,56,981.48
2022,05,24,07,57,981.48
2022,05,24,07,58,981.48
2022,05,24,07,59,981.48
2022,05,24,08,00,952.56
2022,05,24,08,01,952.56
2022,05,24,08,02,952.56
2022,05,24,08,03,952.56
2022,05,24,08,04,952.56
2022,05,24,08,05,952.56
2022,05,24,08,06,952.56
2022,05,24,08,07,952.56
2022,05,24,08,08,952.56
2022,05,24,08,09,973.15
2022,05,24,08,10,973.15
2022,05,24,08,11,973.15
2022,05,24,08,12,973.15
2022,05,24,08,13,973.15
2022,05,24,08,14,973.15
2022,05,24,08,15,973.15
2022,05,24,08,16,973.15
2022,05,24,08,17,973.15
2022,05,24,08,18,973.15
2022,05,24,08,19,973.15
2022,05,24,08,20,973.15
2022,05,24,08,21,973.15
2022,05,24,08,22,966.14
2022,05,24,08,23,966.14
2022,05,24,08,24,966.14
2022,05,24,08,25,966.14
2022,05,24,08,26,966.14
2022,05,24,08,27,966.14
2022,05,24,08,28,966.14
2022,05,24,08,29,936.03
2022,05,24,08,30,936.03
2022,05,24,08,31,936.03
2022,05,24,08,32,936.03
2022,05,24,08,33,936.03
2022,05,24,08,34,936.03
2022,05,24,08,35,936.03
2022,05,24,08,36,936.03
2022,05,24,08,37,929.87
2022,05,24,08,38,929.87
2022,05,24,08,39,929.87
2022,05,24,08,40,929.87
2022,05,24,08,41,929.87
2022,05,24,08,42,929.87
2022,05,24,08,43,929.87
2022,05,24,08,44,929.87
2022,05,24,08,45,929.87
2022,05,24,08,46,929.87
2022,05,24,08,47,929.87
2022,05,24,08,48,929.87
2022,05,24,08,49,929.87
2022,05,24,08,50,929.87
2022,05,24,08,51,923.47
2022,05,24,08,52,923.47
2022,05,24,08,53,923.47
2022,05,24,08,54,923.47
2022,05,24,08,55,918.63
2022,05,24,08,56,918.63
2022,05,24,08,57,918.63
2022,05,24,08,58,918.63
2022,05,24,08,59,918.63
2022,05,24,09,00,918.63
2022,05,24,09,01,918.63
2022,05,24,09,02,918.63
2022,05,24,09,03,918.63
2022,05,24,09,04,918.63
2022,05,24,09,05,918.63
2022,05,24,09,06,918.63
2022,05,24,09,07,918.63
2022,05,24,09,08,918.63
2022,05,24,09,09,918.63
2022,05,24,09,10,918.63
2022,05,24,09,11,918.63
2022,05,24,09,12,918.63
2022,05,24,09,13,918.63
2022,05,24,09,14,918.63
2022,05,24,09,15,918.63
2022,05,24,09,16,918.63
2022,05,24,09,17,918.63
2022,05,24,09,18,918.63
2022,05,24,09,19,918.63
2022,05,24,09,20,918.63
2022,05,24,09,21,918.63
2022,05,24,09,22,918.63
2022,05,24,09,23,918.63
2022,05,24,09,24,918.63
2022,05,24,09,25,918.63
2022,05,24,09,26,918.63
2022,05,24,09,27,918.63
2022,05,24,09,28,918.63
2022,05,24,09,29,918.63
2022,05,24,09,30,918.63
2022,05,24,09,31,918.63
2022,05,24,09,32,918.63
2022,05,24,09,33,918.63
2022,05,24,09,34,918.63
2022,05,24,09,35,918.63
2022,05,24,09,36,918.63
2022,05,24,09,37,918.63
2022,05,24,09,38,918.63
2022,05,24,09,39,918.63
2022,05,24,09,40,918.63
2022,05,24,09,41,918.63
2022,05,24,09,42,918.63
2022,05,24,09,43,918.63
2022,05,24,09,44,918.63
2022,05,24,09,45,918.63
2022,05,24,09,46,918.63
2022,05,24,09,47,918.63
2022,05,24,09,48,918.63
2022,05,24,09,49,918.63
2022,05,24,09,50,918.63
2022,05,24,09,51,918.63
2022,05,24,09,52,918.63
2022,05,24,09,53,918.63
2022,05,24,09,54,918.63
2022,05,24,09,55,918.63
2022,05,24,20,33,906.81
2022,05,24,20,34,906.81
2022,05,24,20,35,906.81
2022,05,24,20,36,906.81
2022,05,24,20,37,906.81
2022,05,24,20,38,906.81
2022,05,24,20,39,906.81
2022,05,24,20,40,906.81
2022,05,24,20,41,906.81
2022,05,24,20,42,906.81
2022,05,24,20,43,906.81
2022,05,24,20,44,906.81
2022,05,24,20,45,906.81
2022,05,24,20,46,906.81
2022,05,24,20,47,906.61
2022,05,24,20,48,906.57
2022,05,24,20,49,906.57
2022,05,24,20,50,906.57
2022,05,24,20,51,906.57
2022,05,24,20,52,906.57
2022,05,24,20,53,912.58
2022,05,24,20,54,913.58
2022,05,24,20,55,913.58
2022,05,24,20,56,913.58
2022,05,24,20,57,913.58
2022,05,24,20,58,913.58
2022,05,24,20,59,913.58
2022,05,24,21,00,913.58
2022,05,24,21,01,913.58
2022,05,24,21,02,913.58
2022,05,24,21,03,913.58
2022,05,24,21,04,913.58
2022,05,24,21,05,913.58
2022,05,24,21,06,913.58
2022,05,24,21,07,913.58
2022,05,24,21,08,913.58
2022,05,24,21,09,913.58
2022,05,24,21,10,913.58
2022,05,24,21,11,913.58
2022,05,24,21,12,913.58
2022,05,24,21,13,913.58
2022,05,24,21,14,913.58
2022,05,24,21,15,913.58
2022,05,24,21,16,913.58
2022,05,24,21,17,913.58
2022,05,24,21,18,913.58
2022,05,24,21,19,913.58
2022,05,24,21,20,913.58
2022,05,24,21,21,913.58
2022,05,24,21,22,913.58
2022,05,24,21,23,913.58
2022,05,24,21,24,913.58
2022,05,24,21,25,913.58
2022,05,24,21,26,913.58
2022,05,24,21,27,913.58
2022,05,24,21,28,913.58
2022,05,24,21,29,913.58
2022,05,24,21,30,913.58
2022,05,24,21,31,913.58
2022,05,24,21,32,913.58
2022,05,24,21,33,913.58
2022,05,24,21,34,913.58
2022,05,24,21,35,913.58
2022,05,24,21,36,913.58
2022,05,24,21,37,913.58
2022,05,24,21,38,913.58
2022,05,24,21,39,913.58
2022,05,24,21,47,932.44
2022,05,24,21,48,932.44
2022,05,24,21,49,932.44
2022,05,24,21,50,932.44
2022,05,24,21,51,932.44
2022,05,24,21,52,932.44
2022,05,24,21,53,932.44
2022,05,24,21,54,932.44
2022,05,24,21,55,932.44
2022,05,24,21,56,932.44
2022,05,24,21,57,932.44
2022,05,24,21,58,932.44
2022,05,24,21,59,932.44
2022,05,24,22,00,947.41
2022,05,24,22,01,950.05
2022,05,24,22,02,950.05
2022,05,24,22,03,950.05
2022,05,24,22,04,950.05
2022,05,24,22,05,950.05
2022,05,24,22,06,950.05
2022,05,24,22,07,950.05
2022,05,24,22,08,950.05
2022,05,24,22,09,950.05
2022,05,24,22,10,950.05
2022,05,24,22,11,950.05
2022,05,24,22,12,950.05
2022,05,24,22,13,950.05
2022,05,24,22,14,950.05
2022,05,24,22,15,950.05
2022,05,24,22,16,950.05
2022,05,24,22,17,950.05
2022,05,24,22,18,950.05
2022,05,24,22,19,950.05
2022,05,24,22,20,950.05
2022,05,24,22,21,950.05
2022,05,24,22,22,950.05
2022,05,24,22,23,950.05
2022,05,24,22,24,950.05
2022,05,24,22,25,950.05
2022,05,24,22,26,950.05
2022,05,24,22,27,977.74
2022,05,24,22,28,981.00
2022,05,24,22,29,983.37
2022,05,24,22,30,983.81
2022,05,24,22,31,983.81
2022,05,24,22,32,983.81
2022,05,24,22,33,983.81
2022,05,24,22,34,983.81
2022,05,24,22,35,983.81
2022,05,24,22,36,983.81
2022,05,24,22,37,983.81
2022,05,24,22,38,983.81
2022,05,24,22,39,983.81
2022,05,24,22,40,983.81
2022,05,24,22,41,983.81
2022,05,24,22,42,983.81
2022,05,24,22,43,983.81
2022,05,24,22,44,983.81
2022,05,24,22,45,983.81
2022,05,24,22,46,983.81
2022,05,24,22,47,983.81
2022,05,24,22,48,983.81
2022,05,24,22,49,983.81
2022,05,24,22,50,983.81
2022,05,24,22,51,983.81
2022,05,24,22,52,979.38
2022,05,24,22,53,978.60
2022,05,24,22,54,978.60
2022,05,24,22,55,978.60
2022,05,24,22,56,978.60
2022,05,24,22,57,978.60
2022,05,24,22,58,978.60
2022,05,24,22,59,978.60
2022,05,24,23,00,978.60
2022,05,24,23,01,978.60
2022,05,24,23,02,971.60
2022,05,24,23,03,970.78
2022,05,24,23,04,970.78
2022,05,24,23,05,970.78
2022,05,24,23,06,970.78
2022,05,24,23,07,970.78
2022,05,24,23,08,970.78
2022,05,24,23,09,970.78
2022,05,24,23,10,970.78
2022,05,24,23,11,970.78
2022,05,24,23,12,970.78
2022,05,24,23,13,970.78
2022,05,24,23,14,970.78
2022,05,24,23,15,970.78
2022,05,24,23,16,970.78
2022,05,24,23,17,970.78
2022,05,24,23,18,970.78
2022,05,24,23,19,970.78
2022,05,24,23,20,970.78
2022,05,24,23,21,970.78
2022,05,24,23,22,970.78
2022,05,24,23,23,970.78
2022,05,24,23,24,970.78
2022,05,24,23,25,970.78
2022,05,24,23,26,970.78
2022,05,24,23,27,970.78
2022,05,24,23,28,970.78
2022,05,24,23,29,970.78
2022,05,24,23,30,970.78
2022,05,24,23,31,979.15
2022,05,24,23,32,981.24
2022,05,24,23,33,988.38
2022,05,24,23,34,989.64
2022,05,24,23,35,989.64
2022,05,24,23,36,989.64
2022,05,24,23,37,989.64
2022,05,24,23,38,989.64
2022,05,24,23,39,989.64
2022,05,24,23,40,989.64
2022,05,24,23,41,989.64
2022,05,24,23,42,989.64
2022,05,24,23,43,989.64
2022,05,24,23,44,981.74
2022,05,24,23,45,980.26
2022,05,24,23,46,980.26
2022,05,24,23,47,980.26
2022,05,24,23,48,980.26
2022,05,24,23,49,980.26
2022,05,24,23,50,989.01
2022,05,24,23,51,990.87
2022,05,24,23,52,991.10
2022,05,24,23,53,991.13
2022,05,24,23,54,991.13
2022,05,24,23,55,992.95
2022,05,24,23,56,993.40
2022,05,24,23,57,993.40
2022,05,24,23,58,993.40
2022,05,24,23,59,988.98
